#timestamp,LO_Frequency,Hit,StdDev 
1669122015.8,286046999.4,N
1669122035.7,286046996.8,N
1669122055.5,286046997.3,N
1669122075.3,286046998.8,N
1669122095.2,286047000.8,N
1669122115.9,286046998.4,N
1669122165.8,286046998.9,E
1669122175.7,286046998.5,N
1669122195.5,286047000.0,P
1669122215.4,286046998.7,N
1669122235.2,286046998.5,N
1669122255.0,286046998.5,N
1669122255.9,286046998.5,N
1669122275.8,286047000.4,N
1669122295.6,286047000.4,N
1669122315.5,286046998.1,N
1669122335.3,286047000.8,N
1669122355.1,286047000.9,N
1669122375.9,286047000.7,N
1669122395.7,286047001.6,N
1669122415.5,286047002.0,N
1669122435.4,286047002.0,N
1669122455.2,286046999.8,N
1669122475.1,286047003.6,N
1669122476.0,286047003.6,N
1669122495.8,286047004.2,N
1669122515.6,286047000.1,N
1669122535.5,286046999.4,N
1669122555.3,286047000.8,N
1669122575.1,286047003.8,N
1669122595.9,286047003.1,N
1669122615.7,286047001.8,N
1669122635.6,286047003.5,N
1669122655.4,286047004.8,N
1669122675.2,286047008.8,Y
1669122695.1,286047007.6,P
1669122696.0,286047007.6,N
1669122715.8,286047009.0,N
1669122735.7,286047006.9,N
1669122755.5,286047005.8,N
1669122775.3,286047003.3,N
1669122795.2,286047004.2,N
1669122815.9,286047002.4,N
1669122835.7,286047002.1,N
1669122855.6,286046998.5,N
1669122875.4,286047000.7,N
1669122895.2,286046998.6,N
1669122915.1,286047001.1,N
1669122916.0,286047001.1,N
1669122935.8,286046999.5,N
1669122955.7,286046998.4,N
1669122975.5,286046997.1,N
1669122995.3,286046996.6,N
1669123015.2,286046996.7,N
1669123035.0,286046996.7,N
1669123035.9,286046996.7,N
1669123055.7,286046997.0,N
1669123075.6,286046998.0,N
1669123095.4,286046995.3,N
1669123115.3,286046996.5,N
1669123135.1,286046996.9,N
1669123136.0,286046996.9,N
1669123155.8,286046999.1,N
1669123175.7,286046997.4,N
1669123195.5,286046999.2,N
1669123215.3,286046999.3,N
1669123235.2,286046999.0,N
1669123255.0,286046998.8,N
1669123255.9,286046998.8,N
1669123275.8,286047000.0,N
1669123295.6,286046998.2,N
1669123315.4,286047000.5,N
1669123335.3,286047000.5,N
1669123355.1,286047000.3,N
1669123375.9,286047000.4,N
1669123395.7,286047002.1,N
1669123415.5,286047000.8,N
1669123435.4,286047004.4,N
1669123455.2,286047004.2,N
1669123475.0,286047003.6,N
1669123475.9,286047003.6,N
1669123495.8,286047004.0,N
1669123515.6,286047003.7,N
1669123535.5,286047004.0,N
1669123555.3,286047004.0,N
1669123575.1,286047003.8,N
1669123595.9,286047004.1,N
1669123615.7,286047001.5,N
1669123635.5,286047002.0,N
1669123655.4,286046999.8,N
1669123675.2,286047000.1,N
1669123695.0,286047002.5,N
1669123696.0,286047002.5,N
1669123715.8,286047002.4,N
1669123735.6,286047002.5,N
1669123755.5,286047002.2,N
1669123775.3,286047000.9,N
1669123795.1,286046999.3,N
1669123815.9,286046999.1,N
1669123835.7,286047001.0,N
1669123855.6,286047000.8,N
1669123875.4,286047002.8,N
1669123895.2,286047002.4,N
1669123915.1,286047002.0,N
1669123916.0,286047002.0,N
1669123935.8,286047000.3,N
1669123955.6,286046998.2,N
1669123975.5,286047000.6,N
1669123995.3,286047002.8,N
1669124015.1,286047000.6,N
1669124035.9,286046998.5,N
1669124055.7,286046998.4,N
1669124075.6,286046998.7,N
1669124095.4,286046999.4,N
1669124115.2,286046999.3,N
1669124135.1,286046997.2,N
1669124136.0,286046997.2,N
1669124155.8,286046997.7,N
1669124175.7,286046995.6,N
1669124195.5,286046995.5,N
1669124215.3,286046993.7,N
1669124235.2,286046995.2,N
1669124255.9,286046995.2,N
1669124275.7,286046994.9,N
1669124295.6,286046997.9,N
1669124315.4,286047000.8,N
1669124335.2,286047000.9,N
1669124355.1,286047011.9,Y
1669124356.0,286047000.4,P
1669124375.8,286047002.3,P
1669124395.7,286047002.0,N
1669124415.5,286047004.3,Y
1669124435.3,286047001.7,P
1669124455.2,286046999.9,N
1669124475.0,286046999.9,N
1669124475.9,286046999.9,N
1669124495.8,286047001.9,N
1669124515.6,286047005.6,Y
1669124535.4,286047004.3,P
1669124555.3,286047005.3,N
1669124575.1,286047004.9,N
1669124595.9,286047005.9,Y
1669124615.7,286047002.5,P
1669124635.5,286047002.0,P
1669124655.4,286046999.8,N
1669124675.2,286047002.1,N
1669124695.0,286047001.1,N
1669124695.9,286047001.1,N
1669124715.8,286047000.7,N
1669124735.6,286047000.6,N
1669124755.5,286046999.8,N
1669124775.3,286047001.2,N
1669124795.1,286047000.8,N
1669124815.9,286047000.7,N
1669124835.7,286046998.1,N
1669124855.5,286046998.3,N
1669124875.4,286046998.3,N
1669124895.2,286047011.9,Y
1669124915.1,286046999.6,P
1669124916.0,286046999.6,N
1669124935.8,286046994.9,P
1669124955.6,286046997.0,N
1669124975.5,286046995.3,N
1669124995.3,286046996.2,N
1669125015.2,286046996.4,N
1669125035.9,286046995.9,N
1669125055.7,286046995.4,N
1669125075.6,286046997.7,N
1669125095.4,286046997.0,N
1669125115.2,286046996.9,N
1669125135.1,286046998.9,N
1669125136.0,286046998.9,N
1669125155.8,286046998.1,N
1669125175.7,286046999.3,N
1669125195.5,286046998.8,N
1669125215.3,286046999.4,N
1669125235.2,286046998.6,N
1669125255.0,286046999.6,N
1669125255.9,286046999.6,N
1669125275.7,286046997.7,N
1669125295.6,286046999.5,N
1669125315.4,286047001.2,N
1669125335.3,286047000.9,N
1669125355.1,286046999.8,N
1669125356.0,286046999.8,N
1669125375.8,286047002.5,N
1669125395.7,286047001.9,N
1669125415.5,286047001.0,N
1669125435.3,286046998.1,N
1669125455.2,286047001.1,N
1669125475.0,286047002.2,N
1669125475.9,286047002.2,N
1669125495.8,286047000.5,N
1669125515.6,286047000.6,N
1669125535.4,286047000.6,N
1669125555.3,286047001.1,N
1669125575.1,286047002.8,N
1669125595.9,286046999.9,N
